Wind_Speed
20 26 22 25 29 29 30 30 30 30 30 30 31 30 30 30 30 33 32 33 34 36 41 41 42 45 44 44 45 43 45 45 33 31 39 39 38 50 47 56 38 70 53 56 63 53 40 34 28 43 49 43 34 30
16 21 26 28 28 29 30 28 31 32 30 33 30 28 28 28 29 31 34 33 33 38 44 43 45 45 45 40 44 46 46 47 43 36 26 35 34 37 44 57 57 50 58 54 49 72 43 41 49 40 36 38 32 33
16 22 27 28 28 28 26 25 25 30 32 28 27 27 27 27 29 31 33 33 33 37 43 47 44 34 39 38 38 51 51 47 44 42 52 50 34 35 47 58 52 57 47 56 46 51 55 60 47 29 24 24 31 28
12 18 20 21 28 29 24 26 25 28 24 25 26 26 25 26 28 30 34 34 33 34 45 50 40 42 38 42 41 42 50 47 51 46 51 57 55 31 54 54 39 46 57 60 61 58 41 38 41 34 27 32 29 25
12 18 19 17 28 30 29 28 25 22 22 23 24 25 26 27 27 29 32 34 34 34 39 40 39 30 40 40 40 45 44 46 48 51 55 61 57 48 53 40 52 40 37 56 56 59 54 41 47 39 27 25 24 26
13 13 19 17 19 28 36 33 24 22 22 23 24 26 26 27 29 31 33 34 32 31 40 46 44 43 40 43 43 48 46 54 51 47 58 58 58 47 22 41 48 49 51 52 47 41 41 36 33 25 22 21 25 23
17 16 15 15 18 19 16 18 21 21 22 22 24 27 29 29 31 34 35 23 20 18 28 31 38 41 31 24 28 34 40 44 42 48 60 60 41 47 59 37 39 37 36 40 43 42 45 36 31 25 20 25 26 23
16 17 18 18 18 20 21 20 19 20 20 21 22 23 24 26 30 35 34 30 26 36 41 30 42 45 36 37 32 39 33 34 44 27 42 50 49 46 43 59 50 32 36 30 23 29 28 33 25 27 23 28 28 26
17 17 18 19 22 22 22 20 19 19 19 21 22 22 24 26 31 34 28 24 28 30 31 20 34 39 23 15 19 25 22 23 25 21 21 17 34 34 23 45 54 51 34 32 29 33 32 26 25 30 30 33 29 26
22 17 18 18 19 23 22 19 19 19 20 21 22 22 24 24 23 23 22 26 30 34 37 47 46 52 46 43 48 33 17 19 8 15 15 26 29 35 40 21 28 27 46 43 43 39 29 25 33 33 34 28 25 22
24 23 20 19 18 20 22 21 20 20 21 21 21 23 21 18 14 16 15 17 21 19 32 42 40 42 38 40 41 26 6 3 3 6 8 5 18 32 30 23 24 27 28 35 36 35 28 30 38 35 35 29 24 22
26 25 24 21 18 19 22 22 21 19 18 19 20 22 19 18 13 12 15 11 14 18 28 34 31 27 29 24 30 11 11 7 6 5 5 6 5 13 27 33 30 24 31 39 36 33 33 32 33 36 37 35 26 19
28 25 26 23 20 18 20 20 21 19 21 15 24 20 11 13 16 13 14 17 13 20 19 20 24 25 24 24 15 6 5 4 2 4 5 8 8 14 21 25 29 26 22 23 24 32 38 37 29 22 16 12 18 21
22 25 27 26 22 20 22 22 22 20 24 17 21 17 13 10 12 28 27 22 24 21 20 17 19 16 22 16 6 5 6 4 5 4 10 5 7 13 25 26 26 25 24 21 19 30 26 22 16 19 23 22 20 18
18 20 22 23 22 21 21 21 21 22 24 17 17 13 20 24 22 15 15 18 20 25 32 26 20 25 19 9 10 9 7 5 5 9 10 4 4 10 25 26 25 26 27 25 22 18 19 22 25 26 21 18 17 16
20 20 20 20 20 22 19 20 21 26 28 27 11 19 21 22 24 23 26 29 26 22 20 16 13 10 14 8 7 7 3 5 7 13 16 20 11 11 10 18 21 21 20 19 16 17 20 24 23 23 23 22 18 14
21 24 19 18 21 22 18 19 23 25 19 18 32 23 20 21 14 10 15 19 28 30 26 10 8 11 1 8 5 6 4 3 8 13 13 30 27 10 6 16 24 23 23 19 20 21 21 21 21 21 18 16 15 14
28 24 21 19 21 20 21 26 25 20 21 27 13 27 34 29 25 25 25 24 26 26 30 26 15 10 10 13 17 11 7 11 13 16 18 18 26 22 15 13 22 26 26 24 22 22 21 22 17 14 15 15 16 16
23 24 21 22 23 27 25 29 30 20 27 22 29 30 24 19 22 25 28 28 28 29 29 23 10 6 6 8 2 13 16 14 3 2 8 20 22 23 21 21 22 23 23 23 23 21 20 15 14 17 18 16 13 10
21 19 16 24 25 28 30 21 31 24 11 18 21 17 22 26 20 15 18 23 26 26 27 20 16 7 6 8 4 13 19 19 16 10 6 13 20 21 21 22 24 27 27 24 21 19 19 20 19 17 14 11 9 8
18 25 20 23 26 30 30 22 27 37 39 24 12 8 10 18 20 17 18 16 22 28 26 21 14 9 3 12 14 14 13 10 10 8 8 14 20 19 21 23 28 31 28 26 23 19 17 16 14 12 10 8 9 13
20 21 16 24 28 37 16 15 15 21 23 28 21 9 12 17 16 14 18 17 22 25 18 10 14 11 2 2 9 17 17 15 13 10 13 16 22 23 26 28 29 28 23 21 20 19 18 15 13 10 8 12 14 12
19 14 23 24 21 14 17 18 15 19 19 19 22 18 16 17 20 20 21 19 24 13 9 14 8 7 12 4 13 18 18 17 18 19 21 22 24 24 24 24 22 24 24 23 20 16 13 11 9 11 13 10 7 6
18 19 24 21 17 16 12 19 25 15 13 13 14 17 20 21 18 18 21 22 16 8 18 16 12 7 7 10 18 19 21 22 25 26 24 23 25 25 23 23 21 18 15 14 11 10 10 12 12 9 5 4 6 10
21 18 16 18 16 19 23 13 23 21 17 15 16 13 8 9 13 14 20 17 10 22 21 18 12 9 10 18 20 23 24 23 24 25 23 17 17 18 18 15 13 12 11 11 12 11 9 7 6 5 6 8 10 10
13 12 12 13 23 21 22 14 18 18 16 14 11 14 15 9 6 6 13 7 14 17 23 20 16 15 18 22 26 26 24 21 19 20 21 18 13 10 9 9 10 12 12 11 9 6 5 5 5 7 9 10 11 14
12 9 21 23 16 21 22 24 21 13 15 11 13 6 4 4 3 5 10 9 20 22 24 20 16 14 15 22 24 25 24 19 12 9 11 11 12 9 8 10 9 8 5 4 3 4 7 7 6 9 11 12 13 15
17 16 14 18 20 17 22 25 15 19 25 23 16 11 4 3 3 6 7 13 25 32 29 26 23 19 20 20 19 17 16 15 12 10 9 8 8 9 8 7 4 4 5 6 6 7 8 9 11 12 11 11 12 13
18 22 19 15 20 17 18 18 15 17 16 19 18 15 16 10 9 6 16 23 29 31 29 28 28 28 26 24 19 15 13 13 11 10 9 8 7 7 7 7 7 7 8 8 8 9 11 12 13 11 10 12 13 14
19 19 20 21 25 22 23 21 16 17 15 14 15 14 13 11 7 5 21 26 28 28 27 24 20 18 17 16 17 17 17 15 13 12 11 9 7 6 5 4 3 2 3 5 6 8 10 11 12 13 14 15 16 17
20 23 20 21 27 24 15 18 17 16 18 16 18 16 16 12 11 14 20 27 23 26 28 27 26 23 21 20 18 16 15 13 11 10 8 8 7 5 4 2 0 3 6 9 11 13 14 15 16 17 17 17 17 18
16 22 20 22 24 24 15 14 16 16 15 17 19 14 19 18 20 27 32 32 26 24 25 25 22 20 20 19 17 14 12 9 7 5 5 4 4 3 4 5 8 10 12 14 15 17 18 19 19 19 19 20 21 22
8 13 11 16 22 24 23 20 18 15 13 15 16 22 23 25 29 32 29 29 28 27 25 23 22 20 17 15 13 12 10 8 6 4 3 2 3 4 6 7 9 10 12 13 15 17 18 19 20 20 20 21 22 22
Wind_Direction
270 238 235 224 218 220 218 221 224 222 222 225 223 222 226 227 229 235 240 240 245 251 260 260 262 261 264 264 268 272 279 275 279 270 253 246 238 241 242 239 258 230 226 230 234 238 247 247 243 232 251 253 259 276
245 232 225 218 222 220 219 223 217 219 219 222 218 222 225 227 230 235 241 242 247 250 259 260 258 261 264 271 265 267 268 267 264 272 268 237 237 235 239 252 251 233 228 226 219 230 234 241 256 250 240 242 265 250
226 231 220 218 221 215 216 216 223 220 203 206 216 223 226 229 233 238 244 248 252 256 264 263 262 263 269 272 265 264 264 266 272 277 276 273 253 255 236 251 246 234 224 223 231 233 236 244 240 231 251 240 250 239
231 219 224 213 213 211 214 214 217 205 199 208 216 222 227 230 234 238 245 249 254 262 266 270 271 265 267 270 265 262 270 271 269 269 264 262 263 262 242 238 243 218 222 228 235 238 238 244 228 227 232 239 234 235
234 216 218 217 202 209 213 215 206 208 212 216 220 225 229 233 237 245 249 252 254 253 263 274 272 258 272 275 271 275 270 274 265 263 257 268 258 262 254 240 237 239 223 216 223 231 238 239 221 229 221 232 232 217
224 217 213 205 192 202 212 213 214 217 224 227 229 232 234 237 240 247 254 252 261 264 269 277 275 272 278 277 273 272 271 271 255 257 263 262 258 245 226 219 240 247 241 238 236 244 219 234 219 216 226 226 223 220
209 212 222 213 202 196 196 198 207 219 229 236 240 243 243 241 240 242 250 260 256 230 268 259 274 281 284 274 280 265 270 251 241 262 248 246 259 236 243 242 251 244 228 237 237 237 246 219 210 211 222 219 213 214
193 209 214 215 214 206 210 216 222 229 237 245 247 245 245 244 242 244 248 254 256 261 283 275 275 280 281 289 286 280 262 246 235 235 221 239 241 241 249 242 243 229 221 217 232 235 216 207 221 213 212 208 201 200
192 199 208 214 218 217 217 221 228 235 241 243 241 241 241 243 243 246 254 256 255 255 267 267 272 283 276 294 302 268 227 223 229 238 242 245 226 231 243 227 224 223 213 204 206 202 211 211 220 203 208 202 204 199
205 203 210 213 219 220 219 220 228 236 237 233 233 236 242 246 251 256 257 261 257 258 263 263 264 267 278 288 287 296 232 222 239 237 233 231 226 236 228 192 196 205 220 223 213 208 202 195 211 198 200 198 201 204
210 213 219 219 220 218 215 219 227 231 231 226 233 237 247 249 250 251 252 243 251 249 267 273 273 276 279 275 278 280 269 234 251 258 221 252 242 231 220 214 219 213 206 202 204 218 225 209 197 196 192 191 194 203
216 220 223 222 220 219 216 220 227 235 235 226 233 237 242 233 242 242 240 225 231 246 259 264 271 276 274 269 281 241 226 207 246 287 233 245 284 201 200 193 194 203 208 211 217 201 187 195 197 186 185 187 195 202
220 222 223 221 220 221 218 221 229 230 212 208 208 229 226 221 223 223 226 220 228 233 250 277 272 267 267 272 245 244 271 259 233 235 265 271 309 178 166 177 192 197 194 195 208 212 185 180 179 174 157 160 193 201
220 223 220 221 222 222 218 220 219 218 210 223 202 209 215 215 218 229 236 239 257 271 259 274 254 246 253 240 203 230 226 220 215 247 263 208 348 156 152 165 173 169 175 172 183 189 155 139 150 177 189 194 205 217
214 220 223 221 220 214 211 209 213 220 213 229 204 213 228 233 244 253 255 262 276 301 280 289 265 240 233 209 204 218 205 218 205 201 192 178 167 139 153 156 152 153 149 150 146 152 161 169 172 173 185 201 215 221
216 220 224 217 208 202 204 213 223 210 215 235 219 209 227 240 247 262 270 274 280 299 288 287 244 224 233 195 198 209 205 221 229 198 175 169 163 121 146 166 161 160 158 154 160 164 171 174 185 200 209 208 208 219
216 216 210 208 196 197 205 218 203 208 226 235 239 233 238 241 254 274 303 297 278 288 325 311 251 203 237 201 214 177 210 187 184 172 157 173 182 182 167 176 180 178 180 190 183 181 186 190 191 194 198 209 220 227
220 207 206 201 194 199 199 197 208 213 239 227 238 251 240 248 262 280 293 301 313 301 304 322 283 205 187 200 217 196 120 109 128 164 150 162 182 196 216 191 178 179 178 175 178 182 183 182 185 197 205 201 195 198
212 206 201 200 200 193 192 205 211 234 236 238 246 256 249 256 284 285 288 300 307 301 300 318 254 217 158 104 202 187 166 165 305 56 179 189 191 200 203 184 177 172 173 173 172 176 178 188 199 192 183 186 197 220
185 181 196 192 193 199 204 211 217 210 211 237 253 266 262 259 287 300 303 299 301 300 304 290 259 261 162 182 157 179 191 203 227 239 204 189 197 196 195 191 181 180 179 175 171 177 179 179 174 178 187 205 228 261
179 169 177 199 214 211 207 222 222 225 232 241 271 284 262 256 277 283 309 294 298 296 291 284 209 229 49 203 204 217 183 171 186 207 218 196 182 174 172 164 163 163 170 170 173 169 170 172 179 191 211 241 269 276
190 191 209 193 210 198 209 196 206 226 232 234 236 275 248 260 273 276 303 282 281 297 289 221 184 209 319 206 186 165 155 161 155 176 190 189 169 161 158 156 157 159 166 168 170 176 180 189 203 218 247 266 269 279
201 212 183 183 190 185 200 205 209 235 235 235 236 236 255 283 284 281 292 285 289 284 244 173 147 186 201 167 166 158 159 155 156 169 168 163 156 153 151 149 158 161 164 168 174 186 197 210 235 249 255 261 258 260
193 198 181 182 203 200 195 209 213 228 211 216 223 239 256 265 270 274 280 295 278 238 172 164 192 205 152 181 173 164 152 156 162 157 152 152 151 150 156 158 159 165 176 187 195 209 221 229 234 228 220 247 279 286
182 192 205 199 204 209 212 208 211 220 228 221 221 230 256 242 258 276 288 293 243 168 161 156 145 147 180 172 157 150 144 156 156 148 140 148 158 157 154 156 162 171 185 200 212 222 221 210 215 231 267 279 279 281
186 195 198 205 213 206 205 211 209 220 221 228 238 247 239 270 277 270 290 250 212 184 148 138 145 166 160 163 159 145 143 152 160 163 153 147 150 157 159 173 190 196 200 191 180 191 216 238 261 283 277 279 290 297
186 188 203 209 210 217 216 222 230 224 216 224 238 229 236 274 281 289 288 205 181 162 145 143 151 153 147 153 154 152 147 148 158 169 166 168 172 171 186 207 199 185 156 151 205 245 265 274 275 286 294 295 297 303
196 207 217 223 216 220 221 231 241 223 227 238 242 222 223 230 307 299 228 197 183 159 147 144 150 156 155 150 149 151 155 158 161 172 183 182 171 165 171 176 171 197 217 224 255 256 253 259 287 297 296 303 305 307
198 207 220 232 213 210 215 233 230 218 220 222 227 245 244 269 287 270 176 163 153 143 147 154 157 154 151 149 149 142 141 143 153 163 162 173 188 196 206 211 225 230 238 250 254 263 264 275 286 286 290 298 301 302
200 203 218 220 212 213 216 225 235 234 238 236 228 237 243 276 228 211 187 181 170 174 172 149 135 141 146 142 144 154 161 163 162 162 166 168 167 164 155 156 167 203 256 278 289 296 296 294 294 292 290 292 295 297
225 227 219 216 213 212 224 235 234 237 243 231 217 222 244 243 183 175 173 187 177 154 143 145 149 152 155 157 159 163 163 158 156 161 165 166 163 161 158 148 54 326 321 319 313 309 311 311 309 303 298 296 295 292
204 202 202 202 207 207 203 190 203 198 200 206 214 216 179 160 156 152 152 149 157 162 159 156 159 165 166 166 165 163 162 162 166 177 191 205 216 234 254 271 294 306 309 310 312 310 308 307 305 302 300 296 293 293
261 240 245 217 199 194 205 215 210 193 198 183 182 180 169 158 149 151 152 155 163 166 162 161 162 163 166 168 170 177 187 196 205 210 222 247 270 283 294 302 304 305 309 310 306 304 302 301 301 301 298 295 294 293
Height
2917 2919 2921 2925 2929 2935 2940 2946 2951 2957 2962 2968 2973 2978 2982 2986 2991 2993 2997 2999 3000 2999 2996 2999 3001 3002 3005 3006 3005 3007 3011 3008 3008 3007 3005 2996 2991 2994 2999 2987 2993 3002 3008 3005 3013 3017 3005 3011 3024 3024 3010 3019 3025 3028
2910 2912 2915 2919 2925 2929 2934 2940 2945 2951 2955 2961 2966 2971 2976 2980 2984 2987 2988 2991 2993 2991 2986 2989 2989 2990 2993 2997 2997 2996 2994 2994 2995 2996 2987 2986 2977 2976 2980 2977 2980 2984 2987 2991 2986 2973 2993 3000 3006 3012 3012 3012 3016 3021
2904 2906 2910 2914 2919 2924 2929 2934 2939 2944 2948 2955 2961 2966 2970 2974 2977 2980 2981 2984 2985 2982 2975 2973 2976 2985 2982 2985 2988 2982 2976 2981 2983 2986 2982 2978 2967 2966 2961 2964 2968 2968 2974 2976 2981 2977 2986 2992 3001 3001 3002 3005 3012 3016
2898 2901 2905 2907 2913 2919 2924 2930 2935 2939 2944 2950 2955 2960 2964 2968 2970 2973 2973 2976 2977 2976 2966 2959 2968 2965 2972 2970 2971 2968 2964 2974 2970 2972 2968 2963 2961 2951 2949 2954 2953 2953 2958 2961 2961 2971 2980 2982 2987 2992 2996 3002 3007 3010
2893 2896 2901 2903 2907 2914 2920 2925 2931 2935 2940 2945 2950 2954 2958 2961 2963 2964 2965 2967 2968 2970 2960 2955 2955 2956 2957 2957 2958 2957 2954 2955 2954 2954 2951 2945 2945 2949 2945 2945 2940 2941 2944 2945 2948 2961 2968 2972 2978 2982 2990 2995 2999 3004
2889 2893 2896 2899 2903 2909 2915 2921 2926 2931 2936 2941 2944 2948 2951 2954 2956 2957 2956 2959 2961 2962 2955 2947 2945 2941 2945 2945 2943 2944 2940 2938 2937 2938 2933 2930 2933 2939 2922 2919 2923 2929 2937 2944 2947 2958 2962 2967 2971 2978 2982 2988 2994 2999
2884 2888 2892 2896 2900 2906 2910 2915 2922 2927 2931 2935 2937 2940 2943 2946 2947 2947 2950 2954 2954 2954 2949 2940 2930 2930 2934 2932 2929 2926 2924 2920 2924 2917 2915 2916 2921 2917 2914 2910 2917 2925 2930 2937 2944 2948 2950 2956 2966 2972 2977 2984 2990 2995
2881 2885 2889 2894 2898 2903 2908 2913 2918 2922 2925 2928 2931 2933 2936 2938 2939 2938 2942 2946 2949 2944 2940 2935 2926 2924 2925 2920 2915 2914 2906 2907 2907 2906 2902 2903 2911 2907 2896 2901 2913 2922 2927 2930 2933 2937 2945 2957 2960 2965 2972 2980 2984 2989
2877 2882 2886 2890 2895 2899 2904 2909 2913 2916 2919 2923 2925 2928 2928 2928 2929 2931 2936 2939 2938 2940 2932 2927 2922 2915 2916 2910 2909 2905 2897 2896 2897 2894 2894 2896 2892 2890 2888 2890 2903 2913 2920 2926 2931 2940 2943 2947 2954 2959 2965 2971 2978 2983
2873 2878 2883 2887 2891 2895 2900 2904 2908 2911 2915 2917 2920 2921 2920 2923 2926 2929 2929 2928 2926 2925 2922 2916 2915 2908 2913 2910 2902 2902 2889 2890 2886 2886 2886 2884 2878 2878 2885 2890 2899 2901 2908 2919 2924 2928 2933 2941 2948 2954 2960 2968 2976 2981
2869 2875 2879 2883 2887 2891 2895 2900 2903 2906 2909 2911 2913 2915 2918 2920 2922 2922 2921 2919 2917 2915 2910 2903 2905 2904 2906 2903 2899 2898 2883 2882 2883 2883 2880 2876 2871 2872 2880 2884 2892 2898 2906 2912 2918 2924 2930 2936 2942 2949 2956 2965 2972 2978
2866 2870 2875 2879 2882 2886 2890 2894 2898 2901 2904 2908 2910 2912 2914 2916 2917 2917 2913 2911 2909 2906 2902 2897 2898 2900 2896 2895 2893 2885 2883 2882 2881 2879 2876 2872 2868 2866 2871 2882 2888 2896 2903 2908 2913 2919 2924 2933 2941 2946 2950 2956 2963 2971
2861 2866 2870 2874 2878 2881 2885 2889 2893 2897 2899 2900 2903 2906 2908 2910 2907 2905 2901 2901 2901 2898 2898 2897 2895 2895 2893 2891 2886 2883 2882 2880 2879 2877 2873 2867 2863 2864 2868 2876 2882 2892 2898 2905 2910 2916 2923 2930 2936 2942 2948 2952 2962 2970
2856 2860 2865 2869 2872 2877 2881 2885 2888 2892 2894 2896 2896 2899 2900 2897 2895 2894 2895 2897 2897 2895 2893 2891 2888 2889 2886 2884 2881 2882 2880 2879 2876 2875 2871 2869 2868 2866 2869 2876 2884 2890 2897 2904 2909 2914 2921 2928 2935 2942 2948 2956 2964 2969
2852 2856 2859 2863 2867 2871 2876 2880 2884 2887 2890 2890 2889 2890 2889 2890 2890 2891 2892 2892 2892 2888 2886 2883 2882 2882 2880 2879 2878 2877 2876 2873 2872 2872 2871 2872 2873 2876 2878 2882 2887 2893 2899 2905 2911 2917 2924 2931 2937 2945 2953 2958 2964 2967
2848 2851 2854 2858 2862 2867 2872 2876 2878 2882 2884 2884 2880 2881 2883 2884 2887 2889 2888 2887 2886 2883 2879 2877 2874 2874 2873 2873 2872 2871 2871 2869 2868 2866 2870 2875 2877 2879 2883 2887 2891 2896 2902 2908 2914 2922 2928 2934 2942 2948 2953 2956 2960 2963
2844 2846 2851 2854 2859 2864 2868 2871 2874 2877 2877 2876 2876 2878 2880 2880 2881 2884 2886 2883 2881 2880 2877 2873 2870 2869 2866 2868 2869 2869 2869 2868 2866 2868 2869 2874 2878 2881 2885 2889 2894 2899 2904 2910 2916 2922 2929 2936 2941 2946 2950 2954 2957 2959
2838 2844 2848 2852 2857 2861 2864 2867 2870 2872 2871 2873 2872 2875 2877 2878 2878 2876 2876 2878 2878 2876 2876 2875 2868 2863 2864 2866 2866 2870 2871 2870 2868 2870 2873 2875 2880 2883 2887 2891 2894 2899 2904 2909 2916 2923 2930 2935 2940 2943 2947 2950 2954 2957
2835 2840 2845 2850 2854 2858 2861 2864 2866 2867 2868 2869 2872 2873 2873 2875 2878 2877 2874 2873 2872 2871 2870 2867 2863 2857 2863 2865 2867 2870 2873 2874 2872 2873 2876 2877 2880 2884 2887 2892 2897 2901 2906 2912 2918 2923 2929 2934 2939 2942 2946 2949 2952 2956
2832 2837 2842 2847 2851 2855 2858 2860 2861 2863 2863 2866 2868 2869 2871 2872 2874 2874 2873 2873 2871 2868 2868 2865 2861 2862 2863 2865 2867 2869 2872 2875 2876 2877 2878 2878 2881 2886 2891 2895 2898 2902 2907 2914 2919 2924 2927 2932 2937 2942 2946 2949 2951 2954
2829 2834 2839 2843 2846 2850 2854 2854 2855 2858 2861 2863 2865 2866 2868 2869 2869 2869 2869 2867 2865 2864 2861 2858 2858 2861 2861 2864 2868 2869 2870 2873 2875 2877 2878 2880 2883 2887 2891 2894 2899 2905 2909 2913 2919 2923 2929 2934 2939 2942 2945 2948 2951 2953
2829 2833 2836 2839 2841 2845 2849 2849 2852 2854 2857 2860 2863 2864 2864 2864 2864 2865 2863 2861 2860 2859 2857 2855 2855 2857 2861 2864 2866 2868 2870 2873 2875 2878 2881 2884 2885 2889 2894 2898 2901 2906 2912 2916 2920 2924 2929 2934 2938 2941 2944 2946 2947 2948
2828 2831 2832 2837 2840 2842 2846 2847 2849 2851 2854 2856 2859 2861 2860 2860 2860 2860 2858 2856 2854 2852 2851 2852 2854 2857 2862 2864 2867 2870 2872 2875 2877 2881 2884 2887 2890 2894 2897 2901 2906 2910 2914 2917 2920 2925 2929 2933 2935 2938 2939 2941 2943 2944
2828 2830 2831 2834 2837 2840 2842 2844 2846 2849 2851 2853 2854 2856 2856 2856 2856 2855 2853 2851 2849 2847 2848 2851 2856 2859 2861 2864 2868 2871 2874 2879 2882 2885 2888 2890 2893 2897 2902 2904 2908 2912 2918 2920 2923 2926 2929 2931 2932 2933 2934 2936 2939 2941
2827 2830 2831 2832 2834 2837 2840 2840 2842 2846 2847 2850 2852 2852 2852 2852 2851 2848 2843 2846 2843 2844 2848 2851 2855 2858 2863 2866 2868 2873 2878 2883 2885 2887 2890 2895 2899 2903 2907 2910 2913 2916 2919 2921 2922 2925 2926 2928 2931 2930 2931 2932 2935 2937
2824 2826 2829 2828 2832 2835 2837 2840 2841 2843 2845 2847 2848 2848 2849 2849 2848 2844 2842 2842 2841 2842 2848 2852 2857 2862 2865 2869 2872 2875 2879 2885 2888 2891 2894 2899 2905 2909 2910 2915 2916 2917 2918 2917 2917 2920 2924 2926 2926 2926 2928 2929 2930 2931
2821 2822 2823 2826 2829 2832 2836 2839 2841 2843 2844 2845 2845 2845 2845 2844 2843 2843 2839 2840 2843 2846 2850 2855 2860 2862 2865 2870 2875 2878 2883 2888 2894 2898 2899 2901 2905 2905 2908 2915 2913 2916 2910 2911 2917 2920 2922 2922 2923 2925 2925 2925 2924 2923
2818 2820 2823 2826 2828 2831 2833 2836 2837 2839 2841 2843 2845 2846 2846 2846 2845 2843 2840 2842 2844 2848 2852 2857 2862 2867 2871 2876 2880 2884 2887 2890 2893 2896 2898 2900 2902 2906 2909 2909 2907 2908 2911 2914 2916 2918 2920 2921 2921 2920 2919 2918 2918 2917
2816 2819 2823 2824 2827 2830 2832 2833 2835 2836 2838 2839 2840 2841 2842 2844 2845 2845 2845 2845 2846 2850 2856 2861 2865 2869 2873 2876 2881 2885 2888 2891 2895 2897 2898 2900 2902 2904 2905 2905 2907 2909 2911 2913 2914 2915 2915 2915 2914 2914 2914 2913 2913 2912
2815 2817 2819 2821 2824 2826 2829 2830 2832 2834 2836 2838 2838 2839 2840 2841 2841 2841 2845 2848 2851 2853 2857 2860 2867 2872 2876 2880 2884 2888 2891 2893 2895 2897 2898 2900 2902 2904 2904 2906 2907 2909 2910 2910 2910 2910 2910 2910 2909 2908 2907 2907 2906 2906
2812 2814 2816 2818 2821 2825 2828 2830 2832 2833 2834 2836 2838 2839 2839 2841 2842 2843 2845 2850 2853 2857 2862 2866 2870 2875 2879 2882 2886 2889 2892 2894 2895 2898 2899 2900 2902 2903 2903 2904 2905 2906 2906 2906 2906 2906 2904 2904 2903 2902 2901 2900 2900 2900
2810 2811 2813 2816 2820 2824 2827 2829 2830 2832 2833 2835 2837 2838 2840 2841 2843 2844 2848 2853 2857 2862 2865 2868 2873 2878 2880 2883 2886 2889 2891 2893 2895 2896 2897 2898 2899 2900 2900 2901 2901 2901 2901 2901 2900 2899 2898 2897 2897 2896 2895 2895 2895 2894
2811 2811 2812 2815 2818 2821 2824 2827 2829 2830 2832 2834 2836 2838 2840 2842 2844 2849 2852 2857 2861 2865 2868 2871 2874 2878 2881 2883 2886 2888 2891 2893 2894 2894 2895 2895 2895 2896 2896 2896 2897 2897 2896 2896 2895 2895 2894 2893 2892 2890 2890 2889 2888 2887